CAPE
0 0 0 0 0 0 0 0 0 0 0 8 38 9 0 672 683 662 577 535 456 418 385 335 598 780 698 535 514 435 567 476 447 492 618 545 594 312 132 70 56 20 80 163
0 0 0 0 0 0 0 0 0 0 0 0 0 0 0 591 723 678 616 537 533 473 312 136 131 484 574 391 423 470 502 433 494 562 516 477 379 364 378 248 166 99 76 94
0 0 0 0 0 0 0 0 0 0 0 0 0 0 0 1 220 330 620 517 456 463 357 136 94 292 305 269 337 469 542 442 416 545 366 428 375 429 349 272 440 269 133 111
0 0 0 0 0 0 0 0 0 0 0 0 0 0 0 0 0 200 76 602 512 499 327 219 141 233 257 203 323 483 522 476 523 476 541 562 606 616 451 347 279 289 271 195
0 0 0 0 0 0 0 0 0 0 0 0 0 0 0 0 2 325 458 347 445 443 564 722 612 547 347 385 347 372 438 738 751 822 737 685 824 507 352 364 429 272 190 247
0 0 0 0 0 0 0 0 0 0 0 0 0 0 0 0 0 7 260 371 566 324 140 19 41 2 39 282 540 591 700 602 506 301 61 83 172 451 752 710 402 476 378 207
0 0 0 0 0 0 0 0 0 0 0 0 0 0 0 0 0 0 7 179 375 330 224 284 230 89 16 56 1432 705 608 339 8 0 12 2 0 32 273 527 827 490 690 609
0 0 0 0 0 0 0 0 0 0 0 0 0 0 0 0 140 64 60 889 1003 597 348 616 1104 1000 615 112 403 1456 244 2 0 0 0 0 0 0 0 97 651 810 743 722
0 0 0 0 0 0 0 0 0 0 0 0 0 0 0 45 73 224 876 926 976 884 612 967 1154 1066 825 299 946 501 5 0 0 0 0 0 0 0 0 51 196 813 780 549
0 0 0 0 0 0 0 0 0 0 0 0 0 0 0 73 73 171 667 967 1072 480 432 1097 1237 1061 928 780 234 7 0 0 0 0 0 0 0 0 2 268 1296 1284 1068 727
0 0 0 0 0 0 0 0 0 0 0 0 0 0 0 3 78 260 666 1078 914 447 318 837 1100 949 646 1013 912 765 238 275 130 11 0 0 0 0 65 465 1152 1306 1240 660
0 0 0 0 0 0 0 0 0 0 0 0 0 0 0 0 19 90 580 504 130 305 194 473 689 785 653 339 674 1218 956 806 737 514 209 176 203 285 612 1035 1103 1300 1505 688
0 0 0 0 0 0 0 0 0 0 0 0 6 0 0 0 74 115 179 184 147 270 328 333 78 78 94 173 43 477 724 1035 1000 896 868 988 775 335 912 980 977 928 1036 999
0 0 0 0 0 0 0 0 0 0 0 0 0 0 0 31 315 213 382 306 481 533 559 395 202 10 0 0 0 0 0 25 97 190 665 536 420 471 509 824 864 931 892 929
0 0 0 0 0 0 0 0 0 0 0 0 0 1 0 0 19 578 797 787 680 523 356 147 21 3 0 0 0 0 0 8 0 2 87 202 363 380 400 680 820 914 790 837
0 0 0 0 0 0 0 0 0 0 0 0 0 0 0 0 0 0 0 0 0 0 0 0 0 0 0 0 0 0 0 30 39 34 98 101 52 146 118 180 409 823 885 846
0 0 0 0 0 0 0 0 0 0 0 0 8 0 0 0 0 0 0 0 0 0 0 0 0 0 0 0 0 0 0 0 15 52 63 67 69 69 68 128 241 266 226 421
0 0 0 0 0 0 0 0 0 0 0 0 0 0 0 0 0 0 0 0 0 0 0 0 0 0 0 0 0 0 0 0 0 0 8 47 85 68 55 30 17 138 83 136
0 0 0 0 0 0 0 0 0 0 0 0 0 0 0 0 0 0 0 0 0 0 0 0 0 0 0 0 0 0 0 0 0 0 0 0 0 1 39 59 74 87 51 84
0 0 0 0 0 0 0 0 0 0 0 0 0 0 0 0 0 0 0 0 0 0 0 0 0 0 0 0 0 0 0 0 0 0 0 0 0 4 16 51 113 121 101 142
0 0 0 0 0 0 0 0 0 0 0 0 0 0 0 0 0 0 0 0 0 0 0 0 0 0 0 0 0 0 0 0 0 0 0 0 0 0 0 10 38 79 122 122
0 0 0 0 0 0 0 0 0 0 0 0 0 0 0 0 0 0 0 0 0 0 0 0 0 0 6 9 4 4 4 8 13 6 11 12 7 2 13 6 3 26 41 78
0 0 0 0 0 0 0 0 0 0 0 0 0 0 0 0 0 0 0 0 0 0 0 0 0 9 2 9 5 0 8 13 6 3 3 4 5 11 24 21 12 12 10 20
0 0 0 0 0 0 0 0 0 0 0 0 0 0 0 0 0 0 0 0 0 3 5 3 1 0 0 0 2 1 1 0 1 4 4 4 7 5 4 22 26 5 9 2
0 0 0 0 0 0 0 0 0 0 0 0 0 0 0 0 0 0 1 4 3 4 0 2 3 3 2 2 0 0 2 4 5 5 4 2 2 2 2 7 11 26 19 13
0 0 0 0 0 0 0 0 0 0 0 0 0 0 0 0 0 1 3 1 0 0 0 0 0 0 0 2 1 2 4 7 6 6 6 6 7 6 10 9 9 10 4 0
CIN
-0 -0 -0 -0 -0 -0 -0 -0 -0 -0 -0 -147 -187 -48 -1 -340 -337 -359 -365 -337 -330 -345 -350 -417 -333 -295 -313 -347 -348 -366 -335 -367 -378 -307 -238 -241 -211 -248 -332 -356 -309 -262 -162 -97
-0 -0 -0 -0 -0 -0 -0 -0 -0 -0 -0 -0 -0 -0 -0 -340 -340 -339 -355 -347 -310 -286 -343 -458 -439 -376 -340 -454 -457 -426 -386 -447 -398 -337 -309 -294 -288 -241 -221 -257 -281 -270 -191 -142
-0 -0 -0 -0 -0 -0 -0 -0 -0 -0 -0 -0 -0 -0 -0 -58 -406 -362 -342 -331 -343 -312 -335 -394 -497 -513 -457 -521 -536 -481 -438 -458 -443 -367 -382 -346 -308 -263 -275 -245 -193 -238 -240 -205
-0 -0 -0 -0 -0 -0 -0 -0 -0 -0 -0 -0 -0 -0 -0 -0 -193 -355 -465 -331 -335 -332 -363 -366 -514 -498 -519 -555 -587 -493 -492 -459 -367 -311 -292 -234 -204 -189 -258 -274 -273 -248 -227 -230
-0 -0 -0 -0 -0 -0 -0 -0 -0 -0 -0 -0 -0 -0 -0 -0 -147 -302 -383 -430 -419 -413 -400 -451 -511 -559 -512 -538 -497 -502 -483 -441 -413 -387 -338 -275 -264 -289 -267 -218 -208 -289 -278 -255
-0 -0 -0 -0 -0 -0 -0 -0 -0 -0 -0 -0 -0 -0 -0 -0 -0 -255 -439 -468 -458 -522 -555 -388 -615 -392 -434 -483 -413 -502 -430 -465 -526 -534 -665 -640 -531 -362 -223 -183 -179 -229 -240 -256
-0 -0 -0 -0 -0 -0 -0 -0 -0 -0 -0 -0 -0 -0 -0 -0 -0 -0 -527 -563 -544 -582 -592 -627 -562 -560 -572 -352 -291 -428 -453 -565 -300 -0 -424 -317 -0 -280 -414 -253 -148 -173 -182 -185
-0 -0 -0 -0 -0 -0 -0 -0 -0 -0 -0 -0 -0 -0 -0 -0 -500 -552 -522 -423 -457 -494 -546 -517 -439 -445 -505 -582 -491 -295 -590 -43 -0 -0 -0 -0 -0 -0 -0 -412 -188 -154 -179 -166
-0 -0 -0 -0 -0 -0 -0 -0 -0 -0 -0 -0 -0 -0 -0 -503 -492 -532 -401 -407 -391 -442 -529 -431 -449 -475 -565 -627 -441 -522 -541 -0 -0 -0 -0 -0 -0 -0 -0 -390 -366 -175 -167 -197
-0 -0 -0 -0 -0 -0 -0 -0 -0 -0 -0 -0 -0 -0 -0 -385 -408 -467 -370 -327 -322 -488 -596 -433 -432 -430 -557 -492 -584 -277 -0 -0 -0 -0 -0 -0 -0 -0 -142 -401 -102 -86 -123 -198
-0 -0 -0 -0 -0 -0 -0 -0 -0 -0 -0 -0 -0 -0 -0 -37 -448 -368 -367 -322 -312 -629 -606 -456 -434 -437 -523 -431 -403 -368 -456 -402 -473 -383 -0 -0 -0 -0 -508 -267 -113 -113 -149 -230
-0 -0 -0 -0 -0 -0 -0 -0 -0 -0 -0 -0 -0 -0 -0 -0 -271 -512 -392 -436 -604 -632 -630 -488 -453 -390 -411 -460 -354 -231 -282 -333 -304 -327 -458 -473 -387 -291 -196 -138 -140 -150 -123 -238
-0 -0 -0 -0 -0 -0 -0 -0 -0 -0 -0 -0 -34 -0 -0 -33 -498 -524 -448 -475 -549 -545 -494 -493 -512 -509 -473 -355 -374 -262 -250 -206 -199 -213 -198 -156 -154 -232 -150 -155 -160 -159 -142 -143
-0 -0 -0 -0 -0 -0 -0 -0 -0 -0 -0 -0 -0 -0 -0 -554 -435 -526 -399 -473 -452 -413 -391 -416 -421 -516 -0 -0 -0 -0 -0 -193 -331 -292 -192 -197 -201 -195 -188 -158 -166 -147 -146 -128
-0 -0 -0 -0 -0 -0 -0 -0 -0 -0 -0 -4 -0 -264 -0 -0 -396 -407 -357 -317 -307 -310 -365 -417 -97 -97 -0 -0 -0 -0 -0 -159 -0 -252 -330 -259 -219 -219 -228 -156 -145 -182 -183 -171
-0 -0 -0 -0 -0 -0 -0 -0 -0 -0 -0 -0 -0 -0 -0 -0 -0 -0 -0 -0 -0 -0 -0 -0 -0 -0 -0 -0 -0 -0 -0 -285 -301 -290 -295 -322 -363 -387 -334 -298 -207 -201 -183 -184
-0 -0 -0 -0 -0 -0 -0 -0 -0 -0 -0 -0 -272 -0 -0 -0 -0 -0 -0 -0 -0 -0 -0 -0 -0 -0 -0 -0 -0 -0 -0 -174 -336 -275 -304 -294 -299 -289 -309 -329 -322 -277 -280 -234
-0 -0 -0 -0 -0 -0 -0 -0 -0 -0 -0 -0 -0 -0 -0 -0 -0 -0 -0 -0 -0 -0 -0 -0 -0 -0 -0 -0 -0 -0 -0 -0 -0 -0 -129 -229 -194 -213 -239 -301 -288 -307 -291 -256
-0 -0 -0 -0 -0 -0 -0 -0 -0 -0 -0 -0 -0 -0 -0 -0 -0 -0 -0 -0 -0 -0 -0 -0 -0 -0 -0 -0 -0 -0 -0 -0 -0 -0 -0 -0 -0 -74 -236 -247 -265 -276 -282 -257
-0 -0 -0 -0 -0 -0 -0 -0 -0 -0 -0 -0 -0 -0 -0 -0 -0 -0 -0 -0 -0 -0 -0 -0 -0 -0 -0 -0 -0 -0 -0 -0 -0 -0 -0 -0 -0 -149 -163 -184 -203 -212 -237 -196
-0 -0 -0 -0 -0 -0 -0 -0 -0 -0 -0 -0 -0 -0 -0 -0 -0 -0 -0 -0 -0 -0 -0 -0 -0 -0 -0 -0 -0 -0 -0 -0 -0 -0 -0 -0 -0 -0 -0 -100 -142 -118 -100 -123
-0 -0 -0 -0 -0 -0 -0 -0 -0 -0 -0 -0 -0 -0 -0 -0 -0 -0 -0 -0 -0 -0 -0 -0 -0 -0 -10 -9 -5 -6 -0 -0 -0 -0 -0 -0 -1 -9 -0 -3 -34 -87 -67 -91
-0 -0 -0 -0 -0 -0 -0 -0 -0 -0 -0 -0 -0 -0 -0 -0 -0 -0 -0 -0 -0 -0 -0 -0 -0 -5 -1 -0 -1 -0 -0 -0 -0 -0 -0 -0 -0 -0 -0 -0 -2 -0 -50 -69
-0 -0 -0 -0 -0 -0 -0 -0 -0 -0 -0 -0 -0 -0 -0 -0 -0 -0 -0 -0 -0 -4 -1 -0 -0 -0 -0 -0 -0 -0 -0 -0 -0 -0 -0 -1 -0 -0 -0 -0 -0 -2 -0 -0
-0 -0 -0 -0 -0 -0 -0 -0 -0 -0 -0 -0 -0 -0 -0 -0 -0 -0 -1 -5 -4 -4 -0 -1 -0 -0 -0 -0 -0 -0 -0 -1 -0 -0 -0 -0 -0 -0 -0 -0 -0 -2 -2 -2
-0 -0 -0 -0 -0 -0 -0 -0 -0 -0 -0 -0 -0 -0 -0 -0 -0 -3 -8 -1 -0 -0 -0 -0 -0 -0 -0 -0 -0 -0 -1 -0 -0 -0 -0 -0 -0 -0 -0 -0 -0 -0 -5 -1
Wind_Speed
3 6 1 7 5 5 5 3 6 6 5 5 7 5 5 10 10 9 10 9 10 14 9 9 12 11 11 9 9 10 10 8 8 4 3 3 5 3 3 4 5 5 5 8
7 3 7 3 4 5 5 2 5 2 4 6 5 2 1 6 10 9 10 10 10 7 6 8 10 11 12 12 11 10 10 8 7 5 2 2 2 2 2 2 4 7 7 6
5 5 4 2 0 4 3 2 2 3 2 5 7 7 7 4 3 6 8 6 7 9 7 5 8 10 8 10 12 11 8 6 6 5 3 2 1 2 1 2 5 6 8 8
3 3 3 4 4 5 1 6 3 5 4 3 5 3 4 5 8 5 6 10 9 9 5 4 5 7 9 9 5 5 7 7 5 4 3 4 4 5 3 3 3 3 6 7
7 2 3 5 3 5 9 1 3 3 5 4 8 6 7 6 6 4 6 5 3 5 6 6 4 6 1 6 6 4 6 8 8 7 6 2 4 4 2 3 4 4 4 6
6 3 5 8 1 4 3 4 8 6 4 4 4 5 6 4 4 5 3 5 5 8 8 7 4 6 6 4 5 8 10 8 10 8 7 10 9 4 4 7 5 4 3 4
5 6 4 3 0 1 5 8 5 6 6 5 1 2 7 6 4 4 6 6 5 7 7 6 6 5 4 2 4 7 11 9 9 9 12 12 10 8 4 6 7 5 4 4
4 5 4 3 7 8 2 7 8 5 3 4 2 1 5 5 5 4 3 5 6 9 10 8 6 6 4 5 3 9 9 8 7 6 7 4 5 1 5 5 7 9 6 7
4 5 6 2 3 6 3 2 4 10 3 3 3 3 6 5 6 4 5 5 10 14 16 11 7 3 5 2 5 8 7 5 8 8 4 6 8 5 2 8 10 9 10 7
3 2 1 5 2 6 3 6 4 4 4 3 5 4 6 6 8 6 8 9 7 9 10 10 13 9 8 4 5 5 6 9 8 6 4 5 6 4 3 7 12 12 10 7
6 4 8 4 5 1 2 3 8 7 4 6 2 7 6 8 8 10 9 6 4 6 9 9 11 6 7 7 1 4 6 7 5 4 2 2 4 5 7 11 14 12 5 6
6 6 0 1 6 3 3 4 5 7 3 2 3 7 3 7 7 1 6 5 5 6 6 8 9 6 7 6 3 4 8 5 5 4 3 2 3 8 10 10 8 5 6 5
9 1 3 8 8 5 6 3 4 6 4 5 6 7 6 6 2 4 6 1 2 3 7 8 7 5 4 7 7 7 1 2 4 4 3 3 4 4 2 3 3 3 3 2
11 4 7 9 7 4 3 2 3 4 4 5 6 3 5 7 4 1 4 6 5 8 9 7 7 2 3 5 6 7 6 4 3 4 3 4 5 3 1 2 1 1 1 1
6 5 3 4 5 7 3 3 2 2 1 5 6 5 3 4 3 4 5 7 9 9 9 8 7 6 6 6 4 6 6 7 4 4 6 6 7 6 6 6 5 5 5 4
2 3 3 5 8 8 6 5 4 5 4 5 7 5 2 3 8 12 9 11 11 9 8 7 8 8 7 6 6 7 7 4 7 7 8 5 6 6 6 7 5 5 5 5
5 6 4 1 4 4 4 4 2 3 3 2 4 4 2 7 10 6 7 8 8 8 7 7 6 5 6 9 10 11 10 7 6 5 6 8 8 8 8 8 7 7 7 5
7 6 3 3 4 1 5 3 7 8 4 4 10 6 5 6 5 7 6 7 7 6 7 9 10 11 10 11 11 11 10 9 8 7 6 7 7 8 10 6 8 8 5 7
5 7 5 6 3 2 4 7 4 4 2 3 7 8 7 6 6 7 6 8 7 6 6 5 5 5 5 6 8 8 9 8 9 9 9 7 5 8 9 10 9 9 6 7
7 8 7 3 6 7 5 2 4 5 2 7 6 6 5 6 2 3 2 2 3 3 4 7 8 7 6 9 7 7 8 8 8 8 9 8 10 10 9 9 9 9 7 9
4 5 5 2 3 5 4 2 4 5 8 6 6 4 4 3 3 4 2 4 5 6 8 7 6 7 7 7 6 8 8 9 11 11 10 10 10 10 10 9 8 9 8 6
5 6 2 3 4 5 3 4 7 5 3 6 4 3 5 6 5 5 7 6 6 6 7 8 8 9 8 9 10 12 11 14 12 13 14 13 12 9 9 9 10 9 9 9
1 5 6 6 5 2 3 2 2 3 6 4 6 4 6 6 4 3 3 4 4 5 7 5 7 8 9 9 9 12 12 13 15 14 15 15 15 14 12 10 9 9 9 8
2 2 5 3 3 3 3 3 4 4 6 7 7 7 5 6 4 3 3 4 7 6 8 8 8 8 9 9 11 12 13 15 16 15 14 12 12 14 15 11 10 7 8 9
4 4 6 1 1 3 1 4 7 10 10 10 7 5 6 6 4 2 3 5 5 6 7 6 8 8 11 13 13 13 12 12 13 13 12 12 10 11 11 11 10 10 9 8
5 9 7 8 9 6 4 7 8 10 8 7 9 5 5 5 3 2 4 5 6 6 7 7 8 10 12 13 12 12 12 12 13 13 11 10 9 9 8 9 11 12 15 16
Wind_Direction
3 53 285 247 190 202 251 190 223 266 200 129 190 256 249 194 199 200 204 208 208 216 217 199 205 197 190 183 190 197 191 182 148 159 206 204 230 192 195 203 223 210 220 206
19 290 240 216 177 200 232 274 290 294 101 101 174 207 300 200 228 223 206 214 222 234 198 189 180 186 196 191 192 189 200 171 172 174 196 192 118 255 242 206 197 187 203 214
154 236 317 284 175 349 339 200 281 110 67 66 107 347 346 0 191 216 215 215 209 226 220 165 171 184 190 192 188 189 181 165 164 160 124 109 72 282 299 256 256 226 186 191
256 298 273 23 324 133 267 199 153 106 78 204 42 233 301 317 289 259 250 217 203 213 163 184 145 189 202 198 149 165 141 115 102 136 173 209 232 242 211 192 235 229 197 190
240 242 1 351 201 166 231 136 77 59 79 74 357 82 269 347 305 338 338 292 168 102 71 79 153 208 84 117 172 121 117 116 136 153 136 185 230 238 271 249 237 219 214 201
224 263 217 208 70 178 123 85 45 56 75 41 282 118 299 269 273 318 14 41 77 82 79 84 77 61 59 54 142 144 134 146 164 151 145 168 197 193 279 273 256 220 200 227
321 261 290 165 197 73 78 55 357 12 16 215 133 62 226 269 267 239 306 42 73 86 83 63 41 17 76 110 107 143 158 172 188 177 202 212 190 166 172 282 284 278 223 219
138 335 194 181 191 181 100 146 152 175 199 262 289 222 253 255 318 299 11 127 136 122 106 88 59 33 335 231 171 158 170 178 218 214 235 183 157 131 115 281 277 272 245 243
136 276 287 202 176 128 178 129 162 104 354 51 282 282 318 325 303 318 253 247 185 165 128 113 128 138 66 72 151 156 173 191 234 254 275 192 190 135 106 272 269 257 254 237
177 351 297 275 120 40 129 151 75 16 133 221 303 279 239 229 247 245 247 233 281 60 88 78 69 22 21 71 155 173 195 210 234 283 11 326 352 351 298 301 279 251 233 204
141 118 287 35 20 215 51 50 55 110 104 153 178 268 222 227 209 217 237 217 234 75 60 80 72 26 39 16 2 242 232 226 242 260 203 274 295 279 271 269 262 238 218 191
192 137 194 234 299 273 103 118 117 117 217 52 138 271 346 268 210 115 282 318 349 58 68 70 77 50 359 357 5 238 234 243 254 265 282 306 274 269 271 266 259 253 227 197
180 235 58 353 347 354 57 49 96 107 101 187 138 261 9 356 202 198 191 237 15 62 61 68 69 56 326 311 323 298 304 298 314 307 291 273 259 270 317 14 336 349 301 265
93 98 159 181 196 149 99 79 117 104 112 169 224 285 348 346 345 57 35 42 25 27 35 33 34 22 240 263 281 299 311 304 318 307 274 252 235 218 160 72 44 37 71 211
107 116 105 57 84 79 80 5 53 9 185 148 196 144 344 327 344 69 89 68 57 44 37 22 0 352 354 2 329 292 298 304 253 235 258 235 247 243 228 172 201 199 185 183
43 144 129 52 48 92 72 31 47 54 89 68 112 64 316 35 78 65 53 69 63 52 42 28 20 14 11 12 3 358 358 283 276 293 266 278 274 274 278 290 214 210 229 216
77 124 85 159 22 56 23 333 7 50 20 161 148 161 190 54 62 49 57 60 62 46 31 19 9 357 4 5 1 353 338 335 329 274 256 270 289 288 265 244 234 233 225 228
117 93 62 111 35 140 275 11 107 106 34 59 107 108 110 114 92 68 52 72 53 30 12 6 359 355 358 352 347 333 334 330 333 326 305 296 289 272 272 268 267 273 256 237
69 107 70 110 83 321 304 242 202 135 340 357 125 137 144 133 70 25 27 43 39 19 1 326 328 325 315 315 321 322 323 321 322 320 316 312 304 295 288 278 266 248 227 247
61 72 104 115 126 192 243 172 131 119 273 193 168 179 166 143 178 202 91 60 29 6 342 342 345 337 327 326 326 324 317 316 311 314 309 303 308 300 296 289 282 270 248 248
24 19 110 113 143 288 239 152 160 101 235 156 153 157 152 145 178 141 87 36 15 2 341 326 319 317 301 294 302 315 310 320 314 303 304 298 292 293 289 289 286 284 274 260
152 123 146 94 91 256 175 80 156 199 94 130 130 131 97 103 82 48 40 16 353 337 331 334 326 308 318 332 352 343 332 333 341 339 325 312 299 290 286 282 285 281 268 265
121 172 176 164 206 275 285 256 105 121 117 112 109 82 108 96 64 48 8 347 324 330 337 312 306 333 345 349 351 340 341 334 331 329 325 317 308 308 294 275 276 281 272 268
29 141 93 92 292 42 67 64 64 80 97 92 89 98 96 119 97 62 356 327 350 345 349 347 345 346 346 346 341 340 335 331 326 318 313 308 304 306 306 300 279 266 270 273
194 112 130 57 312 71 22 95 121 99 99 99 87 97 102 99 72 56 20 13 357 357 355 344 350 342 342 344 343 336 328 321 314 308 300 298 296 295 299 299 298 292 270 256
186 165 161 213 188 150 163 144 127 122 125 123 114 93 78 88 83 28 46 24 24 6 347 348 342 341 345 342 334 331 327 324 316 312 311 304 297 294 290 296 303 287 261 262